GW1540 Weather Reports


time (UTC)temp
C
wind
direction
speed
KPH
gust
KPH
rain 1hr
cm
rain 24hr
cm
rain mn
cm
humidity
%
barometer
mb
20260831023103 8 202 0.0 0.0 0.00 0.00 0.00 94 1016.9
20260831021601 8 202 0.0 0.0 0.00 0.00 0.00 94 1016.8
20260831014604 8 202 0.0 0.0 0.00 0.00 0.00 93 1016.9
20260831011601 8 202 0.0 0.0 0.00 0.00 0.00 93 1016.8
20260831010101 8 202 0.0 0.0 0.00 0.00 0.00 93 1017.0
20260831004530 8 202 0.0 0.0 0.00 0.00 0.00 93 1017.0
20260831001557 9 202 0.0 0.0 0.00 0.00 0.00 93 1017.1
20260830234626 9 202 0.0 0.0 0.00 0.00 0.00 93 1017.1
20260830233057 10 202 0.0 0.0 0.00 0.00 0.00 92 1017.1
20260830231556 10 202 0.0 0.0 0.00 0.00 0.00 93 1017.1
20260830224556 10 202 0.0 0.0 0.00 0.00 0.00 92 1017.2
20260830223040 10 202 0.0 0.0 0.00 0.00 0.00 92 1017.3
20260830220159 11 202 0.0 0.0 0.00 0.00 0.00 92 1017.2
20260830214551 11 202 0.0 0.0 0.00 0.00 0.00 92 1017.2
20260830213043 11 202 0.0 0.0 0.00 0.00 0.00 92 1017.2
20260830210054 12 202 0.0 0.0 0.00 0.00 0.00 91 1017.0
20260830204549 12 202 0.0 0.0 0.00 0.00 0.00 91 1017.1
20260830203036 12 202 0.0 0.0 0.00 0.00 0.00 90 1017.0
20260830200052 13 202 0.0 0.0 0.00 0.00 0.00 89 1016.8
20260830193107 14 202 0.0 0.0 0.00 0.00 0.00 87 1016.6
20260830190050 15 202 0.0 0.0 0.00 0.00 0.00 85 1016.7
20260830183051 16 202 0.0 3.2 0.00 0.00 0.00 85 1016.4
20260830181544 16 202 0.0 3.2 0.00 0.00 0.00 85 1016.4
20260830174544 17 202 0.0 3.2 0.00 0.00 0.00 82 1016.0
20260830171549 18 202 1.6 4.8 0.00 0.00 0.00 80 1015.9
20260830164545 20 202 3.2 4.8 0.00 0.00 0.00 73 1015.8
20260830161555 22 238 1.6 4.8 0.00 0.00 0.00 64 1015.9
20260830154606 23 102 1.6 11.3 0.00 0.00 0.00 58 1015.8
20260830151600 24 245 1.6 11.3 0.00 0.00 0.00 57 1016.2
20260830150032 24 41 3.2 14.5 0.00 0.00 0.00 56 1016.1
20260830143059 24 254 1.6 9.7 0.00 0.00 0.00 55 1016.0
20260830141552 24 32 1.6 9.7 0.00 0.00 0.00 56 1016.1
20260830140041 24 248 0.0 17.7 0.00 0.00 0.00 57 1016.3
20260830134534 24 252 4.8 14.5 0.00 0.00 0.00 57 1016.3
20260830131550 24 292 4.8 11.3 0.00 0.00 0.00 57 1016.5
20260830130055 24 5 3.2 8.0 0.00 0.00 0.00 56 1016.6
20260830123109 24 360 3.2 11.3 0.00 0.00 0.00 59 1016.6
20260830121550 24 231 3.2 8.0 0.00 0.00 0.00 62 1016.7
20260830114554 23 207 3.2 12.9 0.00 0.00 0.00 60 1016.7
20260830113039 23 78 3.2 12.9 0.00 0.00 0.00 61 1016.6
20260830111533 23 355 0.0 9.7 0.00 0.00 0.00 63 1016.7
20260830104607 23 248 1.6 11.3 0.00 0.05 0.00 62 1016.7
20260830103044 23 216 3.2 9.7 0.00 0.05 0.00 62 1016.9
20260830101538 23 111 3.2 8.0 0.00 0.05 0.00 68 1017.1
20260830094609 23 198 3.2 8.0 0.00 0.05 0.00 67 1017.2
20260830093051 23 143 1.6 8.0 0.00 0.05 0.00 68 1017.3
20260830090101 22 190 0.0 4.8 0.00 0.05 0.00 73 1017.3
20260830083056 21 236 0.0 3.2 0.00 0.08 0.00 77 1017.2
20260830080101 19 236 0.0 3.2 0.00 0.08 0.00 85 1017.1
20260830074540 18 236 0.0 3.2 0.00 0.08 0.00 88 1017.1
20260830071612 15 236 0.0 3.2 0.00 0.08 0.00 96 1017.1
20260830064559 13 236 1.6 3.2 0.00 0.08 0.00 96 1016.8
20260830063054 13 236 1.6 3.2 0.00 0.08 0.00 96 1017.1
20260830061533 11 236 0.0 0.0 0.00 0.08 0.00 96 1017.1
20260830054606 8 236 0.0 0.0 0.00 0.08 0.00 95 1017.0
20260830051601 8 236 0.0 0.0 0.00 0.08 0.00 95 1016.9
20260830044643 8 236 0.0 0.0 0.00 0.08 0.00 94 1016.9
20260830043059 8 236 0.0 0.0 0.00 0.08 0.00 94 1016.9
20260830040048 8 236 0.0 0.0 0.00 0.08 0.00 94 1016.6
20260830033113 8 236 0.0 0.0 0.00 0.08 0.00 94 1016.5
20260830030051 8 236 0.0 0.0 0.00 0.08 0.00 93 1016.3